GW1618 Weather Reports


time (UTC)temp
C
wind
direction
speed
KPH
gust
KPH
rain 1hr
cm
rain 24hr
cm
rain mn
cm
humidity
%
barometer
mb
20260903074905 13 175 8.0 16.1 0.00 0.36 0.00 85 1006.7
20260903074401 13 196 9.7 17.7 0.00 0.36 0.00 85 1006.7
20260903073905 13 196 8.0 17.7 0.00 0.36 0.00 84 1006.6
20260903073401 13 203 8.0 14.5 0.00 0.36 0.00 84 1006.6
20260903072904 13 202 8.0 17.7 0.00 0.36 0.00 84 1006.6
20260903072407 13 207 9.7 17.7 0.00 0.36 0.00 83 1006.6
20260903071909 13 208 9.7 17.7 0.00 0.36 0.00 83 1006.6
20260903071409 13 226 9.7 17.7 0.00 0.36 0.00 83 1006.6
20260903070903 13 208 8.0 14.5 0.00 0.36 0.00 84 1006.5
20260903070402 13 219 6.4 11.3 0.00 0.36 0.00 83 1006.5
20260903065903 13 218 6.4 11.3 0.00 0.36 0.36 84 1006.5
20260903065402 12 220 4.8 9.7 0.00 0.36 0.36 84 1006.5
20260903064901 12 228 3.2 6.4 0.00 0.36 0.36 84 1006.5
20260903064404 12 224 3.2 6.4 0.00 0.36 0.36 84 1006.5
20260903063907 12 215 1.6 4.8 0.00 0.36 0.36 84 1006.5
20260903063651 12 239 1.6 4.8 0.00 0.36 0.36 84 1006.5
20260903062905 12 219 3.2 4.8 0.00 0.36 0.36 84 1006.5
20260903062403 12 217 3.2 4.8 0.00 0.36 0.36 84 1006.6
20260903061903 12 207 3.2 4.8 0.00 0.36 0.36 84 1006.6
20260903061404 12 216 1.6 6.4 0.00 0.36 0.36 84 1006.6
20260903060856 12 210 1.6 6.4 0.00 0.36 0.36 85 1006.6
20260903060345 12 308 0.0 0.0 0.00 0.36 0.36 84 1006.6
20260903055911 12 308 0.0 0.0 0.00 0.36 0.36 84 1006.6
20260903054807 12 308 0.0 3.2 0.00 0.36 0.36 83 1006.5
20260903054305 12 308 1.6 3.2 0.00 0.36 0.36 83 1006.5
20260903053745 12 336 1.6 3.2 0.00 0.36 0.36 83 1006.5
20260903053234 13 340 1.6 3.2 0.00 0.36 0.36 82 1006.5
20260903052731 13 9 1.6 3.2 0.00 0.36 0.36 81 1006.5
20260903052234 13 189 0.0 3.2 0.00 0.36 0.36 80 1006.4
20260903052038 13 187 1.6 4.8 0.00 0.36 0.36 80 1006.4
20260903051216 13 227 1.6 4.8 0.00 0.36 0.36 80 1006.4
20260903050720 13 221 0.0 3.2 0.00 0.36 0.36 80 1006.4
20260903050211 13 182 0.0 3.2 0.00 0.36 0.36 80 1006.4
20260903045713 13 175 1.6 4.8 0.00 0.36 0.36 79 1006.4
20260903045213 13 176 1.6 6.4 0.00 0.36 0.36 79 1006.3
20260903044705 13 219 1.6 6.4 0.00 0.36 0.36 79 1006.3
20260903044206 13 204 1.6 4.8 0.00 0.36 0.36 78 1006.3
20260903043707 14 221 3.2 6.4 0.00 0.36 0.36 76 1006.2
20260903043513 13 213 3.2 6.4 0.00 0.36 0.36 76 1006.2
20260903042658 13 180 1.6 4.8 0.00 0.36 0.36 77 1006.2
20260903042204 14 175 1.6 4.8 0.00 0.36 0.36 78 1006.1
20260903041657 14 194 1.6 4.8 0.00 0.36 0.36 79 1006.1
20260903041150 14 235 3.2 4.8 0.00 0.36 0.36 74 1006.1
20260903040650 14 208 3.2 6.4 0.00 0.36 0.36 74 1006.2
20260903040149 14 195 3.2 6.4 0.00 0.36 0.36 72 1006.2
20260903035649 14 161 3.2 4.8 0.00 0.36 0.36 73 1006.2
20260903035151 15 189 3.2 6.4 0.00 0.36 0.36 75 1006.1
20260903034651 15 188 4.8 6.4 0.00 0.36 0.36 75 1006.1
20260903034141 15 215 3.2 6.4 0.00 0.36 0.36 74 1005.9
20260903034055 15 212 3.2 8.0 0.00 0.36 0.36 73 1005.9
20260903033130 15 242 4.8 8.0 0.00 0.36 0.36 69 1005.9
20260903032631 15 180 4.8 9.7 0.00 0.36 0.36 68 1005.8
20260903032130 15 179 4.8 9.7 0.00 0.36 0.36 68 1005.8
20260903032106 15 157 8.0 17.7 0.00 0.36 0.36 68 1005.8
20260903031138 15 172 11.3 20.9 0.00 0.36 0.36 68 1005.6
20260903030640 15 188 9.7 20.9 0.00 0.36 0.36 68 1005.6
20260903030133 15 205 9.7 19.3 0.00 0.36 0.36 68 1005.6
20260903025636 15 215 8.0 17.7 0.00 0.36 0.36 68 1005.4
20260903025133 16 217 9.7 17.7 0.00 0.36 0.36 68 1005.4
20260903024852 16 196 11.3 20.9 0.00 0.36 0.36 68 1005.4
20260903024631 16 196 11.3 20.9 0.00 0.36 0.36 68 1005.4
20260903024133 16 215 11.3 20.9 0.00 0.36 0.36 68 1005.1
20260903023633 16 205 11.3 20.9 0.00 0.36 0.36 68 1005.1
20260903023223 16 190 9.7 24.1 0.00 0.36 0.36 67 1005.1
20260903022848 16 229 11.3 24.1 0.00 0.36 0.36 66 1005.0
20260903022558 16 212 12.9 25.7 0.00 0.36 0.36 66 1005.0
20260903021629 16 204 9.7 25.7 0.00 0.36 0.36 65 1005.0
20260903021133 16 232 9.7 30.6 0.00 0.36 0.36 66 1005.0
20260903020646 16 217 9.7 30.6 0.00 0.36 0.36 65 1005.0
20260903020432 16 226 6.4 16.1 0.00 0.36 0.36 66 1005.0
20260903020207 16 226 6.4 16.1 0.00 0.36 0.36 66 1005.0
20260903015702 16 209 6.4 14.5 0.00 0.36 0.36 68 1005.0
20260903015637 16 180 6.4 14.5 0.00 0.36 0.36 68 1005.0
20260903014629 16 234 8.0 14.5 0.00 0.36 0.36 68 1005.0
20260903014132 16 221 8.0 16.1 0.00 0.36 0.36 68 1004.7
20260903013630 16 228 11.3 19.3 0.00 0.36 0.36 68 1004.7
20260903012631 16 188 11.3 25.7 0.00 0.36 0.36 67 1004.5
20260903012458 16 216 9.7 30.6 0.00 0.36 0.36 67 1004.5
20260903011906 16 189 12.9 30.6 0.00 0.36 0.36 68 1004.5
20260903011134 16 224 9.7 29.0 0.00 0.36 0.36 68 1004.5
20260903010936 16 228 9.7 22.5 0.00 0.36 0.36 68 1004.5
20260903010444 16 244 12.9 25.7 0.00 0.36 0.36 69 1004.5
20260903005633 16 254 12.9 25.7 0.00 0.36 0.36 70 1004.5
20260903005120 16 246 16.1 32.2 0.00 0.36 0.36 71 1004.5
20260903004611 16 234 17.7 35.4 0.00 0.36 0.36 70 1004.5
20260903004542 16 212 16.1 35.4 0.00 0.36 0.36 70 1004.5
20260903003552 16 262 11.3 30.6 0.00 0.36 0.36 70 1004.5
20260903003110 15 233 9.7 25.7 0.00 0.36 0.36 72 1004.5
20260903002600 15 224 11.3 25.7 0.00 0.36 0.36 72 1004.5
20260903002057 15 276 11.3 25.7 0.00 0.36 0.36 72 1004.5
20260903001554 15 257 12.9 24.1 0.00 0.36 0.36 73 1004.5
20260903001051 15 248 14.5 30.6 0.00 0.36 0.36 74 1004.0
20260903000549 16 223 14.5 30.6 0.00 0.36 0.36 73 1004.0
20260903000053 16 258 12.9 24.1 0.00 0.36 0.36 76 1004.0
20260902235545 16 250 16.1 32.2 0.00 0.36 0.36 75 1003.7
20260902235044 16 261 14.5 33.8 0.00 0.36 0.36 74 1003.7
20260902234842 16 300 16.1 35.4 0.00 0.36 0.36 76 1003.7
20260902234044 16 229 20.9 38.6 0.00 0.36 0.36 75 1003.5
20260902233537 16 196 16.1 38.6 0.00 0.36 0.36 75 1003.5
20260902233034 16 188 16.1 37.0 0.00 0.36 0.36 76 1003.5
20260902232537 16 194 19.3 37.0 0.00 0.36 0.36 76 1003.4
20260902232035 16 204 19.3 45.1 0.00 0.36 0.36 76 1003.4
20260902231535 16 174 19.3 45.1 0.00 0.36 0.36 76 1003.4
20260902231034 16 185 19.3 33.8 0.00 0.36 0.36 76 1003.3
20260902230837 15 188 16.1 32.2 0.00 0.36 0.36 76 1003.3
20260902230041 15 182 19.3 38.6 0.00 0.36 0.36 76 1003.3
20260902225618 15 204 20.9 38.6 0.03 0.36 0.36 76 1003.0
20260902224531 15 192 19.3 41.8 0.05 0.36 0.36 76 1003.0
20260902224029 15 219 16.1 35.4 0.05 0.36 0.36 77 1002.9
20260902223548 15 220 14.5 29.0 0.08 0.36 0.36 78 1002.9
20260902223031 15 192 12.9 27.4 0.08 0.36 0.36 80 1002.9
20260902222529 15 191 11.3 22.5 0.10 0.36 0.36 81 1002.8
20260902222030 15 152 9.7 19.3 0.13 0.36 0.36 83 1002.8
20260902221529 15 184 9.7 19.3 0.15 0.36 0.36 83 1002.8
20260902221034 15 159 9.7 17.7 0.18 0.36 0.36 83 1002.9
20260902220530 15 192 9.7 19.3 0.18 0.36 0.36 84 1002.9
20260902220034 14 172 11.3 25.7 0.18 0.36 0.36 84 1002.9
20260902215539 14 144 9.7 25.7 0.18 0.33 0.33 84 1003.0
20260902215413 14 169 8.0 16.1 0.20 0.33 0.33 84 1003.0
20260902214534 14 144 8.0 17.7 0.18 0.30 0.30 84 1003.0
20260902214031 14 139 8.0 17.7 0.20 0.30 0.30 83 1003.2
20260902213530 15 194 9.7 19.3 0.18 0.30 0.28 83 1003.2
20260902213030 15 180 11.3 24.1 0.20 0.30 0.28 83 1003.2
20260902212852 15 188 14.5 25.7 0.18 0.28 0.25 83 1003.3
20260902212033 15 186 14.5 25.7 0.15 0.25 0.20 81 1003.3
20260902211535 15 189 11.3 24.1 0.15 0.23 0.20 81 1003.3
20260902211031 15 159 9.7 17.7 0.13 0.20 0.18 82 1003.4
20260902210531 15 174 8.0 14.5 0.15 0.20 0.18 82 1003.4
20260902210129 15 205 9.7 17.7 0.15 0.20 0.18 82 1003.4
20260902205031 15 220 12.9 29.0 0.10 0.15 0.13 80 1003.5
20260902204633 15 200 14.5 29.0 0.13 0.15 0.13 80 1003.5
20260902203530 15 157 11.3 25.7 0.10 0.13 0.10 80 1003.5
20260902203337 15 186 12.9 27.4 0.08 0.10 0.08 80 1003.5
20260902202518 15 184 12.9 27.4 0.08 0.10 0.08 79 1003.7
20260902202007 15 177 11.3 27.4 0.05 0.08 0.05 79 1003.7
20260902201503 15 168 14.5 30.6 0.05 0.08 0.05 79 1003.7
20260902200958 15 173 17.7 30.6 0.05 0.08 0.05 77 1004.0
20260902200444 16 177 17.7 30.6 0.03 0.05 0.03 76 1004.0
20260902195946 16 190 19.3 45.1 0.03 0.05 0.03 75 1004.0
20260902195436 16 177 20.9 45.1 0.03 0.05 0.03 73 1003.6
20260902195154 16 171 17.7 33.8 0.00 0.03 0.00 72 1003.6
20260902194437 16 180 14.5 32.2 0.00 0.03 0.00 71 1003.6
20260902193935 17 154 14.5 30.6 0.00 0.03 0.00 70 1003.9
20260902193439 17 163 17.7 35.4 0.00 0.03 0.00 69 1003.9
20260902192935 17 236 17.7 35.4 0.00 0.03 0.00 68 1003.9
20260902192433 17 206 17.7 35.4 0.00 0.03 0.00 68 1004.0
20260902192033 17 169 17.7 35.4 0.00 0.03 0.00 67 1004.0
20260902191252 17 182 19.3 43.5 0.00 0.03 0.00 67 1004.0
20260902190433 17 179 20.9 46.7 0.00 0.03 0.00 65 1004.0
20260902185931 17 220 19.3 46.7 0.00 0.03 0.00 64 1004.0
20260902185431 18 210 16.1 35.4 0.00 0.03 0.00 64 1004.0
20260902184932 18 164 12.9 25.7 0.00 0.03 0.00 64 1004.0
20260902184439 18 167 12.9 29.0 0.00 0.03 0.00 64 1004.0
20260902183931 18 218 9.7 29.0 0.00 0.03 0.00 64 1004.2
20260902183437 18 199 8.0 20.9 0.00 0.03 0.00 64 1004.2
20260902182930 17 154 12.9 27.4 0.00 0.03 0.00 66 1004.2
20260902182832 17 183 14.5 27.4 0.00 0.03 0.00 65 1004.4
20260902181416 17 186 19.3 35.4 0.00 0.03 0.00 64 1004.4
20260902180915 17 223 16.1 35.4 0.00 0.03 0.00 63 1004.4
20260902180409 18 221 14.5 25.7 0.00 0.03 0.00 61 1004.4
20260902180216 18 191 12.9 29.0 0.00 0.03 0.00 60 1004.4
20260902175741 18 198 11.3 29.0 0.00 0.03 0.00 63 1004.4
20260902174915 17 189 9.7 20.9 0.00 0.03 0.00 64 1004.4
20260902174409 17 177 8.0 17.7 0.00 0.03 0.00 66 1004.4
20260902173906 17 174 6.4 17.7 0.00 0.03 0.00 67 1004.4
20260902173405 17 236 6.4 11.3 0.00 0.03 0.00 67 1004.4
20260902172906 17 200 8.0 17.7 0.00 0.03 0.00 67 1004.4
20260902172403 17 202 6.4 17.7 0.00 0.03 0.00 69 1004.5
20260902172215 17 168 4.8 8.0 0.00 0.03 0.00 68 1004.5
20260902171407 16 193 4.8 8.0 0.00 0.03 0.00 71 1004.5
20260902170904 16 231 4.8 8.0 0.00 0.03 0.00 72 1004.7
20260902170404 16 229 4.8 8.0 0.00 0.03 0.00 72 1004.7
20260902165903 16 220 3.2 8.0 0.00 0.03 0.00 74 1004.7
20260902165405 16 214 4.8 9.7 0.00 0.03 0.00 76 1004.7
20260902165220 16 214 4.8 9.7 0.00 0.03 0.00 75 1004.7
20260902164406 16 199 3.2 6.4 0.00 0.03 0.00 76 1004.7
20260902163910 16 235 3.2 6.4 0.00 0.03 0.00 75 1004.9
20260902163406 16 188 3.2 6.4 0.00 0.03 0.00 76 1004.9
20260902162856 15 177 3.2 6.4 0.00 0.03 0.00 76 1004.9
20260902162350 15 216 3.2 6.4 0.00 0.03 0.00 76 1005.0
20260902161854 15 229 3.2 6.4 0.00 0.03 0.00 76 1005.0
20260902161652 15 177 4.8 8.0 0.00 0.03 0.00 76 1005.0
20260902160845 15 235 4.8 8.0 0.00 0.03 0.00 76 1005.1
20260902160347 15 141 4.8 8.0 0.00 0.03 0.00 76 1005.1
20260902155846 15 216 3.2 8.0 0.00 0.03 0.00 76 1005.1
20260902155347 15 209 4.8 11.3 0.00 0.03 0.00 76 1005.5
20260902154854 15 192 6.4 11.3 0.00 0.03 0.00 76 1005.5
20260902154347 15 218 6.4 9.7 0.00 0.03 0.00 75 1005.5
20260902153848 15 190 6.4 14.5 0.00 0.03 0.00 76 1005.6
20260902153341 15 209 4.8 14.5 0.00 0.03 0.00 76 1005.6
20260902153224 15 194 3.2 8.0 0.00 0.03 0.00 77 1005.6
20260902152424 15 169 4.8 8.0 0.00 0.03 0.00 76 1005.7
20260902151640 15 212 3.2 8.0 0.00 0.03 0.00 77 1005.7
20260902150933 15 209 3.2 8.0 0.00 0.03 0.00 78 1006.1
20260902145848 15 202 4.8 8.0 0.00 0.03 0.00 79 1006.1
20260902145345 15 233 4.8 8.0 0.00 0.03 0.00 79 1006.2
20260902144841 15 219 4.8 9.7 0.00 0.03 0.00 79 1006.2
20260902144338 15 225 4.8 11.3 0.00 0.03 0.00 80 1006.2
20260902143831 15 197 3.2 11.3 0.00 0.03 0.00 80 1006.1
20260902143333 15 179 3.2 6.4 0.00 0.03 0.00 81 1006.1
20260902142830 15 202 1.6 4.8 0.00 0.03 0.00 82 1006.1
20260902142335 15 144 1.6 3.2 0.00 0.03 0.00 82 1006.4
20260902141828 15 182 1.6 4.8 0.00 0.03 0.00 82 1006.4
20260902141331 15 225 1.6 6.4 0.00 0.03 0.00 82 1006.4
20260902140835 14 229 3.2 8.0 0.00 0.03 0.00 82 1006.6
20260902140320 14 188 4.8 8.0 0.00 0.03 0.00 83 1006.6
20260902140120 14 244 3.2 6.4 0.00 0.03 0.00 83 1006.6
20260902135638 14 254 3.2 6.4 0.00 0.03 0.00 83 1006.6
20260902134815 15 226 3.2 8.0 0.00 0.03 0.00 83 1006.6
20260902134309 15 197 3.2 8.0 0.00 0.03 0.00 83 1006.6
20260902134057 15 237 4.8 11.3 0.00 0.03 0.00 83 1006.7
20260902133305 15 263 4.8 11.3 0.00 0.03 0.00 83 1006.7
20260902132807 15 217 4.8 9.7 0.00 0.03 0.00 82 1006.7
20260902132306 15 221 4.8 9.7 0.00 0.03 0.00 82 1006.7
20260902131804 15 219 4.8 9.7 0.00 0.03 0.00 83 1006.7
20260902131304 15 206 6.4 14.5 0.00 0.03 0.00 82 1006.7
20260902130803 15 175 4.8 14.5 0.00 0.03 0.00 82 1007.0
20260902130304 15 174 4.8 8.0 0.00 0.03 0.00 82 1007.0
20260902130103 15 175 3.2 6.4 0.00 0.03 0.00 83 1007.0
20260902125256 15 206 3.2 6.4 0.00 0.03 0.00 83 1007.1
20260902124749 15 242 3.2 8.0 0.00 0.03 0.00 83 1007.1
20260902124249 15 209 3.2 8.0 0.00 0.03 0.00 83 1007.1
20260902123739 15 228 3.2 8.0 0.00 0.03 0.00 84 1007.2
20260902123547 15 227 3.2 8.0 0.00 0.03 0.00 84 1007.2
20260902122738 14 195 3.2 6.4 0.00 0.03 0.00 84 1007.2
20260902122238 14 204 3.2 8.0 0.00 0.03 0.00 84 1007.4
20260902121744 14 211 4.8 8.0 0.00 0.03 0.00 84 1007.4
20260902121238 14 222 4.8 8.0 0.00 0.03 0.00 84 1007.4
20260902120738 14 207 4.8 8.0 0.00 0.03 0.00 84 1007.5
20260902120241 14 221 3.2 8.0 0.00 0.03 0.00 84 1007.5
20260902115745 14 214 4.8 8.0 0.00 0.03 0.00 84 1007.5
20260902115238 14 226 4.8 8.0 0.00 0.03 0.00 84 1007.6
20260902114739 14 233 3.2 6.4 0.00 0.03 0.00 84 1007.6
20260902114234 15 233 4.8 8.0 0.00 0.03 0.00 84 1007.6
20260902114051 15 227 4.8 9.7 0.00 0.03 0.00 85 1007.6
20260902113232 15 195 6.4 11.3 0.00 0.03 0.00 84 1007.6
20260902112732 15 208 6.4 12.9 0.00 0.03 0.00 84 1007.6
20260902112538 14 204 6.4 17.7 0.00 0.03 0.00 84 1007.7
20260902111736 14 175 4.8 17.7 0.00 0.03 0.00 85 1007.7
20260902111233 14 178 4.8 11.3 0.00 0.03 0.00 85 1007.7
20260902110827 14 210 4.8 12.9 0.00 0.03 0.00 85 1007.7
20260902105713 14 192 4.8 9.7 0.00 0.03 0.00 85 1007.7
20260902105458 14 229 4.8 9.7 0.00 0.03 0.00 85 1007.8
20260902104706 14 267 6.4 16.1 0.00 0.03 0.00 85 1007.8
20260902104510 14 244 6.4 16.1 0.00 0.03 0.00 85 1007.8
20260902103655 14 227 4.8 11.3 0.00 0.03 0.00 85 1007.7
20260902103148 15 213 4.8 11.3 0.00 0.03 0.00 85 1007.7
20260902102645 15 214 4.8 11.3 0.00 0.03 0.00 85 1007.7
20260902102148 15 216 6.4 11.3 0.00 0.03 0.00 84 1007.7
20260902101934 15 209 6.4 11.3 0.00 0.03 0.00 84 1007.7
20260902101137 14 179 4.8 9.7 0.00 0.03 0.00 85 1007.8
20260902100633 14 173 4.8 9.7 0.00 0.03 0.00 85 1007.8
20260902100136 15 142 4.8 9.7 0.00 0.03 0.00 85 1007.8
20260902095634 15 163 3.2 8.0 0.00 0.03 0.00 86 1008.1
20260902095139 15 159 1.6 6.4 0.00 0.03 0.00 86 1008.1
20260902094632 15 179 3.2 6.4 0.00 0.03 0.00 86 1008.1
20260902094423 15 173 1.6 4.8 0.00 0.03 0.00 86 1008.2
20260902093634 15 210 3.2 8.0 0.00 0.03 0.00 86 1008.2
20260902093133 15 195 3.2 9.7 0.00 0.03 0.00 86 1008.2
20260902092629 15 208 3.2 9.7 0.00 0.03 0.00 86 1008.2
20260902092136 15 195 3.2 8.0 0.00 0.03 0.00 86 1008.2
20260902091635 15 186 3.2 8.0 0.00 0.03 0.00 86 1008.2
20260902091132 15 205 4.8 8.0 0.00 0.03 0.00 86 1008.4
20260902090622 15 204 4.8 8.0 0.00 0.03 0.00 86 1008.4
20260902090109 15 254 4.8 8.0 0.00 0.03 0.00 86 1008.4
20260902085614 15 261 3.2 8.0 0.00 0.03 0.00 86 1008.7
20260902085110 15 211 3.2 9.7 0.00 0.03 0.00 86 1008.7
20260902084934 15 232 4.8 9.7 0.00 0.03 0.00 85 1008.7
20260902084431 15 254 4.8 9.7 0.00 0.03 0.00 85 1008.7
20260902083605 15 269 4.8 9.7 0.00 0.03 0.00 85 1008.7
20260902083103 15 219 4.8 11.3 0.00 0.03 0.00 85 1008.7
20260902082601 15 221 4.8 11.3 0.00 0.03 0.00 85 1009.0
20260902082438 15 225 1.6 6.4 0.00 0.03 0.00 85 1009.0
20260902081935 15 259 1.6 6.4 0.00 0.03 0.00 85 1009.0
20260902081431 15 164 1.6 4.8 0.00 0.03 0.00 85 1009.2
20260902080611 15 169 4.8 9.7 0.00 0.03 0.00 85 1009.2
20260902080045 15 192 4.8 9.7 0.00 0.03 0.00 85 1009.2
20260902075533 15 153 4.8 8.0 0.00 0.03 0.00 85 1009.2